Location: Waco, TX
(31.5480°N, 97.1670°W)
Time: 00:07:30
(UTC-05:00)

ISS - Pass Details

Date: 15 June 2018
Orbit: 402 x 406 km, 51.6° (Epoch: 19 June)

Event Time Altitude Azimuth Distance (km) Brightness Sun altitude
Rises 20:34:35 0° 293° (WNW) 2,314 3.1 -0.7°
Reaches altitude 10° 20:37:27 10° 265° (W) 1,450 0.0 -1.3°
Maximum altitude 20:39:08 14° 234° (SW) 1,254 -1.0 -1.6°
Drops below altitude 10° 20:40:49 10° 202° (SSW) 1,444 -1.1 -1.9°
Sets 20:43:40 0° 175° (S) 2,297 -0.3 -2.4°
